| time (UTC) | temp F | wind direction | speed MPH | gust MPH | rain 1hr in | rain 24hr in | rain mn in | humidity % | barometer mb |
| 20260906220426 | 74 | 300 | 1.0 | 1.0 | 0.00 | 0.04 | 0.04 | 54 | 1013.0 |
| 20260906215427 | 75 | 288 | 1.0 | 1.0 | 0.00 | 0.04 | 0.04 | 54 | 1012.5 |
| 20260906214426 | 75 | 0 | 0.0 | 0.0 | 0.00 | 0.04 | 0.04 | 54 | 1012.7 |
| 20260906213427 | 75 | 317 | 1.0 | 2.0 | 0.00 | 0.04 | 0.04 | 54 | 1012.6 |
| 20260906212427 | 76 | 298 | 1.0 | 2.0 | 0.00 | 0.04 | 0.04 | 55 | 1012.6 |
| 20260906211427 | 76 | 286 | 1.0 | 1.0 | 0.00 | 0.04 | 0.04 | 54 | 1012.4 |
| 20260906210427 | 76 | 303 | 1.0 | 2.0 | 0.00 | 0.04 | 0.04 | 55 | 1012.4 |
| 20260906205527 | 75 | 298 | 1.0 | 2.0 | 0.00 | 0.04 | 0.04 | 54 | 1012.7 |
| 20260906204427 | 75 | 0 | 0.0 | 0.0 | 0.00 | 0.04 | 0.04 | 57 | 1012.8 |
| 20260906203428 | 75 | 288 | 0.0 | 2.0 | 0.00 | 0.04 | 0.04 | 57 | 1013.0 |
| 20260906202428 | 74 | 302 | 1.0 | 2.0 | 0.00 | 0.04 | 0.04 | 57 | 1013.1 |
| 20260906201428 | 74 | 0.0 | 0.0 | 0.00 | 0.04 | 0.04 | 57 | 1013.3 | |
| 20260906200428 | 73 | 305 | 1.0 | 3.0 | 0.00 | 0.04 | 0.04 | 59 | 1013.4 |
| 20260906195449 | 72 | 100 | 0.0 | 0.0 | 0.00 | 0.04 | 0.04 | 58 | 1013.5 |
| 20260906194421 | 72 | 0 | 0.0 | 1.0 | 0.00 | 0.04 | 0.04 | 59 | 1013.6 |
| 20260906193421 | 72 | 291 | 1.0 | 1.0 | 0.00 | 0.04 | 0.04 | 59 | 1013.7 |
| 20260906192421 | 72 | 295 | 1.0 | 2.0 | 0.00 | 0.04 | 0.04 | 59 | 1013.8 |
| 20260906191421 | 72 | 306 | 0.0 | 1.0 | 0.00 | 0.04 | 0.04 | 59 | 1014.0 |
| 20260906190422 | 72 | 283 | 0.0 | 0.0 | 0.00 | 0.04 | 0.04 | 59 | 1014.1 |
| 20260906185442 | 72 | 0 | 0.0 | 0.0 | 0.00 | 0.04 | 0.04 | 60 | 1014.1 |
| 20260906184422 | 71 | 0.0 | 0.0 | 0.00 | 0.04 | 0.04 | 62 | 1014.3 | |
| 20260906183422 | 70 | 292 | 0.0 | 1.0 | 0.00 | 0.04 | 0.04 | 62 | 1014.5 |
| 20260906182422 | 70 | 0 | 0.0 | 0.0 | 0.00 | 0.04 | 0.04 | 64 | 1014.5 |
| 20260906181422 | 69 | 296 | 1.0 | 2.0 | 0.00 | 0.04 | 0.04 | 65 | 1014.6 |
| 20260906180443 | 69 | 0.0 | 0.0 | 0.00 | 0.04 | 0.04 | 65 | 1014.7 | |
| 20260906175423 | 68 | 0.0 | 0.0 | 0.00 | 0.04 | 0.04 | 68 | 1014.8 | |
| 20260906174423 | 68 | 0 | 0.0 | 1.0 | 0.00 | 0.04 | 0.04 | 69 | 1014.7 |
| 20260906173423 | 67 | 293 | 0.0 | 1.0 | 0.00 | 0.04 | 0.04 | 72 | 1014.8 |
| 20260906172544 | 65 | 0.0 | 0.0 | 0.00 | 0.04 | 0.04 | 74 | 1014.9 | |
| 20260906171424 | 65 | 0.0 | 0.0 | 0.00 | 0.04 | 0.04 | 80 | 1014.9 | |
| 20260906170424 | 64 | 0.0 | 0.0 | 0.00 | 0.04 | 0.04 | 83 | 1015.0 | |
| 20260906165424 | 63 | 0.0 | 0.0 | 0.00 | 0.04 | 0.04 | 85 | 1015.0 | |
| 20260906164424 | 63 | 0.0 | 0.0 | 0.00 | 0.04 | 0.04 | 85 | 1015.0 | |
| 20260906163424 | 62 | 0.0 | 0.0 | 0.00 | 0.04 | 0.04 | 88 | 1015.0 | |
| 20260906162425 | 61 | 0.0 | 0.0 | 0.00 | 0.04 | 0.04 | 90 | 1015.0 | |
| 20260906161445 | 61 | 0.0 | 0.0 | 0.00 | 0.04 | 0.04 | 90 | 1015.0 | |
| 20260906160425 | 60 | 0.0 | 0.0 | 0.00 | 0.04 | 0.04 | 91 | 1015.0 | |
| 20260906155425 | 60 | 0.0 | 0.0 | 0.00 | 0.04 | 0.04 | 93 | 1015.2 | |
| 20260906154505 | 59 | 0.0 | 0.0 | 0.00 | 0.04 | 0.04 | 94 | 1015.2 | |
| 20260906153425 | 58 | 0.0 | 0.0 | 0.00 | 0.04 | 0.04 | 96 | 1015.1 | |
| 20260906152426 | 57 | 0.0 | 0.0 | 0.00 | 0.04 | 0.04 | 96 | 1015.1 | |
| 20260906151426 | 57 | 0.0 | 0.0 | 0.00 | 0.04 | 0.04 | 99 | 1015.0 | |
| 20260906150426 | 56 | 111 | 0.0 | 1.0 | 0.03 | 0.04 | 0.04 | 99 | 1014.9 |
| 20260906145426 | 56 | 0.0 | 0.0 | 0.03 | 0.04 | 0.04 | 99 | 1014.8 | |
| 20260906144426 | 56 | 0.0 | 0.0 | 0.03 | 0.04 | 0.04 | 99 | 1014.8 | |
| 20260906143416 | 55 | 0.0 | 0.0 | 0.03 | 0.04 | 0.04 | 99 | 1014.8 | |
| 20260906142427 | 55 | 0.0 | 0.0 | 0.04 | 0.04 | 0.04 | 99 | 1014.6 | |
| 20260906141427 | 55 | 115 | 0.0 | 1.0 | 0.04 | 0.04 | 0.04 | 99 | 1014.5 |
| 20260906140427 | 55 | 0.0 | 0.0 | 0.01 | 0.01 | 0.01 | 98 | 1014.6 | |
| 20260906135436 | 55 | 0.0 | 0.0 | 0.01 | 0.01 | 0.01 | 96 | 1014.4 | |
| 20260906134427 | 55 | 0.0 | 0.0 | 0.01 | 0.01 | 0.01 | 95 | 1014.3 | |
| 20260906133427 | 56 | 0.0 | 0.0 | 0.01 | 0.01 | 0.01 | 94 | 1014.1 | |
| 20260906132428 | 56 | 0.0 | 0.0 | 0.00 | 0.00 | 0.00 | 93 | 1014.4 | |
| 20260906131428 | 55 | 0.0 | 0.0 | 0.00 | 0.00 | 0.00 | 94 | 1014.3 | |
| 20260906130448 | 56 | 0.0 | 0.0 | 0.00 | 0.00 | 0.00 | 93 | 1014.1 | |
| 20260906125518 | 56 | 0.0 | 0.0 | 0.00 | 0.00 | 0.00 | 93 | 1013.9 | |
| 20260906124418 | 56 | 111 | 0.0 | 1.0 | 0.00 | 0.00 | 0.00 | 91 | 1013.8 |
| 20260906123418 | 56 | 0.0 | 0.0 | 0.00 | 0.00 | 0.00 | 91 | 1013.8 | |
| 20260906122419 | 56 | 84 | 0.0 | 1.0 | 0.00 | 0.00 | 0.00 | 93 | 1013.6 |
| 20260906121417 | 56 | 0.0 | 0.0 | 0.00 | 0.00 | 0.00 | 91 | 1013.6 | |
| 20260906120417 | 56 | 0.0 | 0.0 | 0.00 | 0.00 | 0.00 | 91 | 1013.6 | |
| 20260906115419 | 57 | 0.0 | 0.0 | 0.00 | 0.00 | 0.00 | 91 | 1013.7 | |
| 20260906114418 | 57 | 89 | 1.0 | 2.0 | 0.00 | 0.00 | 0.00 | 90 | 1013.6 |
| 20260906113418 | 56 | 0.0 | 0.0 | 0.00 | 0.00 | 0.00 | 90 | 1013.6 | |
| 20260906112418 | 57 | 0.0 | 0.0 | 0.00 | 0.00 | 0.00 | 90 | 1013.5 | |
| 20260906111418 | 57 | 0.0 | 0.0 | 0.00 | 0.00 | 0.00 | 90 | 1013.4 | |
| 20260906110418 | 57 | 0.0 | 0.0 | 0.00 | 0.00 | 0.00 | 88 | 1013.4 | |
| 20260906105418 | 57 | 0.0 | 0.0 | 0.00 | 0.00 | 0.00 | 89 | 1013.1 | |
| 20260906104459 | 57 | 0.0 | 0.0 | 0.00 | 0.00 | 0.00 | 89 | 1013.3 | |
| 20260906103419 | 57 | 0.0 | 0.0 | 0.00 | 0.00 | 0.00 | 90 | 1013.2 | |
| 20260906102419 | 57 | 0.0 | 0.0 | 0.00 | 0.00 | 0.00 | 90 | 1013.0 | |
| 20260906101419 | 57 | 0.0 | 0.0 | 0.00 | 0.00 | 0.00 | 89 | 1013.2 | |
| 20260906100419 | 57 | 0.0 | 0.0 | 0.00 | 0.00 | 0.00 | 89 | 1013.2 | |
| 20260906095420 | 57 | 0.0 | 0.0 | 0.00 | 0.00 | 0.00 | 89 | 1013.2 | |
| 20260906094423 | 58 | 0.0 | 0.0 | 0.00 | 0.00 | 0.00 | 88 | 1013.3 | |
| 20260906093420 | 58 | 0.0 | 0.0 | 0.00 | 0.00 | 0.00 | 85 | 1013.1 | |
| 20260906092500 | 58 | 259 | 1.0 | 2.0 | 0.00 | 0.00 | 0.00 | 84 | 1013.2 |
| 20260906091420 | 58 | 0.0 | 0.0 | 0.00 | 0.00 | 0.00 | 84 | 1012.8 | |
| 20260906090421 | 58 | 0.0 | 0.0 | 0.00 | 0.00 | 0.00 | 85 | 1013.0 | |
| 20260906085420 | 59 | 0 | 0.0 | 0.0 | 0.00 | 0.00 | 0.00 | 85 | 1013.1 |
| 20260906084441 | 59 | 0 | 0.0 | 0.0 | 0.00 | 0.00 | 0.00 | 85 | 1013.1 |
| 20260906083421 | 59 | 0.0 | 0.0 | 0.00 | 0.00 | 0.00 | 85 | 1013.2 | |
| 20260906082441 | 59 | 0.0 | 0.0 | 0.00 | 0.00 | 0.00 | 85 | 1013.1 | |
| 20260906081441 | 60 | 0 | 0.0 | 0.0 | 0.00 | 0.00 | 0.00 | 84 | 1013.2 |
| 20260906080421 | 60 | 0.0 | 0.0 | 0.00 | 0.00 | 0.00 | 83 | 1013.2 | |
| 20260906075421 | 60 | 178 | 0.0 | 0.0 | 0.00 | 0.00 | 0.00 | 84 | 1013.0 |
| 20260906074502 | 60 | 0.0 | 0.0 | 0.00 | 0.00 | 0.00 | 83 | 1013.2 | |
| 20260906073422 | 60 | 0.0 | 0.0 | 0.00 | 0.00 | 0.00 | 81 | 1013.3 | |
| 20260906072422 | 61 | 111 | 2.0 | 3.0 | 0.00 | 0.00 | 0.00 | 80 | 1013.1 |
| 20260906071422 | 62 | 0.0 | 0.0 | 0.00 | 0.00 | 0.00 | 79 | 1013.3 | |
| 20260906070422 | 62 | 0.0 | 0.0 | 0.00 | 0.00 | 0.00 | 79 | 1013.2 | |
| 20260906065443 | 62 | 0.0 | 0.0 | 0.00 | 0.00 | 0.00 | 78 | 1013.1 | |
| 20260906064423 | 63 | 0.0 | 0.0 | 0.00 | 0.00 | 0.00 | 77 | 1013.6 | |
| 20260906063423 | 63 | 0.0 | 0.0 | 0.00 | 0.00 | 0.00 | 77 | 1012.6 | |
| 20260906062423 | 64 | 0 | 0.0 | 0.0 | 0.00 | 0.00 | 0.00 | 77 | 1013.6 |
| 20260906061423 | 64 | 0.0 | 0.0 | 0.00 | 0.00 | 0.00 | 77 | 1013.6 | |
| 20260906060444 | 65 | 0.0 | 0.0 | 0.00 | 0.00 | 0.00 | 74 | 1013.6 | |
| 20260906055424 | 65 | 0.0 | 0.0 | 0.00 | 0.00 | 0.00 | 75 | 1013.3 | |
| 20260906054424 | 65 | 0.0 | 0.0 | 0.00 | 0.00 | 0.00 | 75 | 1013.7 | |
| 20260906053424 | 65 | 0.0 | 0.0 | 0.00 | 0.00 | 0.00 | 73 | 1013.7 | |
| 20260906052424 | 66 | 0.0 | 0.0 | 0.00 | 0.00 | 0.00 | 73 | 1014.0 | |
| 20260906051424 | 66 | 0.0 | 0.0 | 0.00 | 0.00 | 0.00 | 70 | 1014.1 | |
| 20260906050425 | 66 | 261 | 2.0 | 3.0 | 0.00 | 0.00 | 0.00 | 70 | 1014.6 |
| 20260906045424 | 66 | 0.0 | 0.0 | 0.00 | 0.00 | 0.00 | 73 | 1014.0 | |
| 20260906044425 | 66 | 0.0 | 0.0 | 0.00 | 0.00 | 0.00 | 72 | 1014.4 | |
| 20260906043425 | 66 | 0.0 | 0.0 | 0.00 | 0.00 | 0.00 | 72 | 1014.3 | |
| 20260906042425 | 66 | 0.0 | 0.0 | 0.00 | 0.00 | 0.00 | 72 | 1014.0 | |
| 20260906041445 | 66 | 285 | 0.0 | 1.0 | 0.00 | 0.00 | 0.00 | 70 | 1013.7 |
| 20260906040426 | 67 | 0.0 | 0.0 | 0.00 | 0.00 | 0.00 | 72 | 1013.9 | |
| 20260906035426 | 67 | 0.0 | 0.0 | 0.00 | 0.00 | 0.00 | 70 | 1014.0 | |
| 20260906034426 | 68 | 0.0 | 0.0 | 0.00 | 0.00 | 0.00 | 69 | 1014.0 | |
| 20260906033426 | 68 | 0.0 | 0.0 | 0.00 | 0.00 | 0.00 | 68 | 1014.0 | |
| 20260906032426 | 69 | 0.0 | 0.0 | 0.00 | 0.00 | 0.00 | 68 | 1013.8 | |
| 20260906031426 | 69 | 0.0 | 0.0 | 0.00 | 0.00 | 0.00 | 67 | 1013.8 | |
| 20260906030426 | 70 | 0.0 | 0.0 | 0.00 | 0.00 | 0.00 | 67 | 1013.8 | |
| 20260906025426 | 71 | 0.0 | 0.0 | 0.00 | 0.00 | 0.00 | 64 | 1013.7 | |
| 20260906024427 | 72 | 0.0 | 0.0 | 0.00 | 0.00 | 0.00 | 64 | 1013.6 | |
| 20260906023508 | 72 | 0.0 | 0.0 | 0.00 | 0.00 | 0.00 | 63 | 1013.6 | |
| 20260906022447 | 73 | 0.0 | 0.0 | 0.00 | 0.00 | 0.00 | 63 | 1013.6 | |
| 20260906021427 | 74 | 0.0 | 0.0 | 0.00 | 0.00 | 0.00 | 62 | 1013.6 | |
| 20260906020428 | 75 | 0.0 | 0.0 | 0.00 | 0.00 | 0.00 | 60 | 1013.6 | |
| 20260906015428 | 75 | 39 | 0.0 | 0.0 | 0.00 | 0.00 | 0.00 | 60 | 1013.6 |
| 20260906014428 | 76 | 0.0 | 0.0 | 0.00 | 0.00 | 0.00 | 59 | 1013.6 | |
| 20260906013428 | 77 | 0.0 | 0.0 | 0.00 | 0.00 | 0.00 | 59 | 1013.6 | |
| 20260906012428 | 77 | 0.0 | 0.0 | 0.00 | 0.00 | 0.00 | 57 | 1013.6 | |
| 20260906011429 | 77 | 0.0 | 0.0 | 0.00 | 0.00 | 0.00 | 57 | 1013.6 | |
| 20260906010449 | 77 | 307 | 1.0 | 1.0 | 0.00 | 0.00 | 0.00 | 55 | 1013.7 |
| 20260906005509 | 77 | 0.0 | 0.0 | 0.00 | 0.00 | 0.00 | 55 | 1013.7 | |
| 20260906004449 | 77 | 302 | 0.0 | 1.0 | 0.00 | 0.00 | 0.00 | 55 | 1013.8 |
| 20260906003429 | 77 | 0 | 0.0 | 0.0 | 0.00 | 0.00 | 0.00 | 57 | 1013.8 |
| 20260906002429 | 77 | 354 | 0.0 | 1.0 | 0.00 | 0.00 | 0.00 | 57 | 1013.7 |
| 20260906001430 | 77 | 0.0 | 0.0 | 0.00 | 0.00 | 0.00 | 57 | 1013.8 | |
| 20260906000430 | 77 | 314 | 1.0 | 2.0 | 0.00 | 0.00 | 0.00 | 58 | 1013.8 |
| 20260905235450 | 78 | 0.0 | 0.0 | 0.00 | 0.00 | 0.00 | 58 | 1013.9 | |
| 20260905234430 | 78 | 0 | 0.0 | 0.0 | 0.00 | 0.00 | 0.00 | 58 | 1013.8 |
| 20260905233430 | 78 | 0.0 | 0.0 | 0.00 | 0.00 | 0.00 | 58 | 1013.9 | |
| 20260905232430 | 78 | 0 | 0.0 | 0.0 | 0.00 | 0.00 | 0.00 | 58 | 1013.9 |
| 20260905231431 | 78 | 301 | 1.0 | 2.0 | 0.00 | 0.00 | 0.00 | 57 | 1013.9 |
| 20260905230511 | 77 | 73 | 1.0 | 2.0 | 0.00 | 0.00 | 0.00 | 57 | 1013.9 |
| 20260905225416 | 77 | 0.0 | 0.0 | 0.00 | 0.00 | 0.00 | 58 | 1014.3 | |
| 20260905224416 | 77 | 267 | 0.0 | 1.0 | 0.00 | 0.00 | 0.00 | 58 | 1014.3 |
| 20260905223416 | 77 | 0.0 | 0.0 | 0.00 | 0.00 | 0.00 | 58 | 1014.4 | |
| 20260905222431 | 77 | 0.0 | 0.0 | 0.00 | 0.00 | 0.00 | 59 | 1014.6 | |
| 20260905221451 | 77 | 0.0 | 0.0 | 0.00 | 0.00 | 0.00 | 60 | 1014.7 |